Location: �quirre
(50.4736°N, 2.2351°E)
Time: 04:42:20
(UTC+00:00)

COSMOS 2487 - Pass Details

Date: 07 August 2020
Orbit: 439 x 443 km, 74.7° (Epoch: 19 September)

Event Time Altitude Azimuth Distance (km) Brightness Sun altitude
Exits shadow 00:48:38 26° 297° (WNW) 916 4.0 -22.2°
Maximum altitude 00:48:48 26° 302° (WNW) 914 4.1 -22.2°
Drops below altitude 10° 00:51:44 10° 1° (N) 1,566 6.2 -22.1°
Sets 00:54:04 0° 15° (NNE) 2,442 7.7 -22.0°
